Location: Dulzura
(32.6442°N, 116.7814°W)
Time: 14:56:23
(UTC+00:00)

CZ-4B R/B - Pass Details

Date: 07 December 2021
Orbit: 482 x 652 km, 97.9° (Epoch: 19 January)

Event Time Altitude Azimuth Distance (km) Brightness Sun altitude
Rises 13:39:57 0° 10° (N) 2,551 6.1 -11.8°
Reaches altitude 10° 13:41:59 10° 10° (N) 1,673 5.2 -11.4°
Maximum altitude 13:45:34 82° 283° (WNW) 503 2.5 -10.6°
Drops below altitude 10° 13:49:14 10° 196° (SSW) 1,712 5.4 -9.9°
Sets 13:51:20 0° 195° (SSW) 2,615 6.4 -9.5°
